Lexington Weather

Lexington, Massachusetts, USA

73°F
9/22/2021 1:52pm 
  • Lexington Conditions: Overcast
  • Temperature: 72.9°F / 22.7°CColder 2.1°F than last hour.
  • Dew Point: 68.7°FIncreased 0.3°Fsince last hour.
  • Relative Humidity: 87%Increased 7.0% since last hour.
  • Wind: Wind from NW NW 5 mph, 10-min avg: 3 mph, gust: 10 mph
  • Barometer: 30.10 in Steady
  • Visibility: 10 miles
  • Rain Today: 0.00 in
  •   

Regional Weather Roundup
for Boston / Norton, MA

        
000
ASUS41 KBOX 171904
RWRBOX

REGIONAL WEATHER ROUNDUP
NATIONAL WEATHER SERVICE BOSTON/NORTON MA
300 PM EDT FRI SEP 17 2021

NOTE:  "FAIR" INDICATES FEW OR NO CLOUDS BELOW 12,000 FEET WITH NO 
SIGNIFICANT WEATHER AND/OR OBSTRUCTIONS TO VISIBILITY.

MAZALL-172000-
EASTERN MASSACHUSETTS
  
CITY           SKY/WX    TMP DP  RH WIND       PRES   REMARKS
BOSTON         CLOUDY    69  62  78 NE7       30.27F                  
BEVERLY        CLOUDY    67  62  84 N9        30.27F                  
LAWRENCE       CLOUDY    67  61  81 NE8       30.30F                  
BEDFORD        CLOUDY    68  64  87 NE6       30.26F                  
BLUE HILL      NOT AVBL                                               
NORWOOD        CLOUDY    68  62  81 NE8       30.26F                  
MARSHFIELD     CLOUDY    68  64  88 VRB6      30.26F                  
PLYMOUTH       CLOUDY    68  66  93 NE8       30.25F                  
TAUNTON        CLOUDY    70  66  87 VRB5      30.24F                  
NEW BEDFORD    CLOUDY    74  69  85 NE10      30.22F                  
$$

MAZALL-172000-
CAPE COD AND THE ISLANDS
  
CITY           SKY/WX    TMP DP  RH WIND       PRES   REMARKS
FALMOUTH       CLOUDY    72  68  88 NE7       30.23F                  
HYANNIS        PTSUNNY   76  70  82 E9        30.21F                  
CHATHAM        CLOUDY    70  67  90 E8        30.24F                  
PROVINCETOWN   CLOUDY    69  67  93 E8        30.26F FOG              
NANTUCKET      CLOUDY    75  69  81 E13       30.21F                  
MARTHAS VNYRD  PTSUNNY   78  71  79 NE10      30.21F                  
$$
 
MAZALL-172000-
CENTRAL AND WESTERN MASSACHUSETTS
  
CITY           SKY/WX    TMP DP  RH WIND       PRES   REMARKS
WORCESTER      FOG       63  63 100 NE6       30.28F VSB 1/2          
FITCHBURG      CLOUDY    66  62  87 VRB6      30.29F                  
ORANGE         CLOUDY    70  63  78 NE6       30.28F                  
SPRINGFIELD    CLOUDY    71  64  78 E7        30.24F                  
WESTFIELD      CLOUDY    72  65  78 N8        30.25F                  
NORTH ADAMS    CLOUDY    72  64  76 E6        30.26F                  
PITTSFIELD     CLOUDY    70  64  81 SE7       30.26F                  
$$
 
RIZALL-172000-
RHODE ISLAND
  
CITY           SKY/WX    TMP DP  RH WIND       PRES   REMARKS
PROVIDENCE     CLOUDY    71  66  84 N9        30.25F                  
NEWPORT        CLOUDY    71  68  90 N9        30.22F                  
BLOCK ISLAND   CLOUDY    69  67  93 NE10      30.22F                  
SMITHFIELD     CLOUDY    67  65  93 NE9       30.26F                  
WESTERLY       CLOUDY    71  69  93 NE9       30.21F                  
$$
 
CTZALL-172000-
CONNECTICUT
  
CITY           SKY/WX    TMP DP  RH WIND       PRES   REMARKS
BRADLEY INTL   CLOUDY    73  66  78 N8        30.24F                  
HARTFORD       CLOUDY    74  65  73 NE6       30.22F                  
BRIDGEPORT     CLOUDY    75  68  78 E7        30.20F                  
DANBURY        CLOUDY    75  66  73 VRB3      30.23F                  
GROTON         CLOUDY    75  69  81 NE12      30.20F                  
NEW HAVEN      CLOUDY    77  71  82 S5        30.21F                  
CHESTER          N/A     77  70  78 VRB5      30.22F                  
MERIDEN        CLOUDY    74  65  73 N8        30.22F                  
WILLIMANTIC    CLOUDY    70  65  84 NE8       30.24F                  
OXFORD         PTSUNNY   73  67  81 E9        30.25F                  
$$

MEZ002-015-021-024-NHZ003-005-008-011-012-014-VTZ005-008-172000-
NORTHERN NEW ENGLAND
  
CITY           SKY/WX    TMP DP  RH WIND       PRES   REMARKS
PORTLAND ME    CLOUDY    65  54  67 E6        30.31F                  
BANGOR ME      MOSUNNY   76  60  57 S6        30.29F                  
CONCORD NH     CLOUDY    68  62  81 SE5       30.29F                  
MANCHESTER NH  CLOUDY    69  61  75 NE5       30.27F                  
NASHUA NH      CLOUDY    67  66  97 NE5       30.29F                  
PORTSMOUTH NH  CLOUDY    66  56  71 NE7       30.30F                  
JAFFREY NH     CLOUDY    68  64  87 CALM      30.30F                  
KEENE NH       CLOUDY    70  65  84 VRB5      30.28F                  
BURLINGTON VT  CLOUDY    75  64  68 S8        30.23F                  
MT. WASHINGTON NOT AVBL                                               
$$

NYZ052-076-172000-
EASTERN NEW YORK
  
CITY           SKY/WX    TMP DP  RH WIND       PRES   REMARKS
ALBANY         CLOUDY    72  65  78 SW5       30.24F                  
NEW YORK CITY  CLOUDY    74  67  78 NE13      30.19F                  
$$
 
ANZALL-172000-
MARINE OBSERVATIONS
  
STATION/POSITION TIME  TEMP    WIND        PRES    VSBY  WAVE
                       AIR SEA DIR/SP/G                  HT/PER
                 (UTC) (F)     (DEG/KT/KT) (MB)    (MI)  (FT/S)
BOSTON BUOY      NOT AVBL
BUZZARDS BAY     NOT AVBL
NANTUCKET SOUND  NOT AVBL
MASS BAY-STELLWA NOT AVBL
ISLE OF SHOALS   NOT AVBL
S OF BLOCK IS    NOT AVBL
$$

......................KEY.........................
  SKY/WX - SKY CONDITION/PRESENT WEATHER
  TMP    - TEMPERATURE IN FAHRENHEIT
  DWPT   - DEWPOINT IN FAHRENHEIT
  RH     - RELATIVE HUMIDITY IN PERCENT
  WIND   - DIRECTION AND SPEED IN MPH
  PRES   - MEAN SEA LEVEL PRESSURE IN INCHES OF HG
  WCI    - WIND CHILL INDEX
  VSB    - VISIBILITY IN MILES
  HX     - HEAT INDEX
  TC     - TEMPERATURE IN CELSIUS
  VRB    - VARIABLE WIND DIRECTION
  N/A    - NOT AVAILABLE
  
      

Other recent Regional Weather Roundups

Wed Sep 22, 1:04pm

Wed Sep 22, 12:05pm

Wed Sep 22, 11:04am

Wed Sep 22, 10:04am

Wed Sep 22, 9:04am

Wed Sep 22, 8:04am

Wed Sep 22, 7:04am

Wed Sep 22, 6:04am

Wed Sep 22, 5:04am

Wed Sep 22, 4:04am

Wed Sep 22, 3:04am

Wed Sep 22, 2:04am

Wed Sep 22, 1:04am

Wed Sep 22, 12:04am

Tue Sep 21, 11:04pm

Tue Sep 21, 10:04pm

Tue Sep 21, 9:04pm

Tue Sep 21, 8:04pm

Tue Sep 21, 7:04pm

Tue Sep 21, 6:04pm

Tue Sep 21, 5:04pm

Tue Sep 21, 4:04pm

Tue Sep 21, 3:04pm

Tue Sep 21, 2:04pm

Tue Sep 21, 1:04pm

Tue Sep 21, 12:04pm

Tue Sep 21, 11:04am

Tue Sep 21, 10:04am

Tue Sep 21, 9:04am

Tue Sep 21, 8:04am

Tue Sep 21, 7:04am

Tue Sep 21, 6:04am

Tue Sep 21, 5:04am

Tue Sep 21, 4:04am

Tue Sep 21, 3:04am

Tue Sep 21, 2:04am

Tue Sep 21, 1:04am

Tue Sep 21, 12:04am

Mon Sep 20, 11:04pm

Mon Sep 20, 10:04pm

Mon Sep 20, 9:04pm

Mon Sep 20, 8:04pm

Mon Sep 20, 7:04pm

Mon Sep 20, 6:04pm

Mon Sep 20, 5:04pm

Mon Sep 20, 4:04pm

Mon Sep 20, 3:04pm

Mon Sep 20, 2:04pm

Mon Sep 20, 1:04pm

Mon Sep 20, 12:04pm

Mon Sep 20, 11:04am

Mon Sep 20, 10:04am

Mon Sep 20, 9:04am

Mon Sep 20, 7:04am

Mon Sep 20, 6:04am

Mon Sep 20, 5:04am

Mon Sep 20, 4:04am

Mon Sep 20, 3:04am

Mon Sep 20, 2:04am

Mon Sep 20, 1:04am

Mon Sep 20, 12:04am

Sun Sep 19, 11:04pm

Sun Sep 19, 10:04pm

Sun Sep 19, 9:04pm

Sun Sep 19, 8:04pm

Sun Sep 19, 7:04pm

Sun Sep 19, 6:04pm

Sun Sep 19, 5:04pm

Sun Sep 19, 4:04pm

Sun Sep 19, 3:04pm

Sun Sep 19, 2:05pm

Sun Sep 19, 1:04pm

Sun Sep 19, 12:04pm

Sun Sep 19, 11:04am

Sun Sep 19, 10:05am

Sun Sep 19, 9:04am

Sun Sep 19, 8:04am

Sun Sep 19, 7:04am

Sun Sep 19, 6:04am

Sun Sep 19, 5:04am

Sun Sep 19, 4:04am

Sun Sep 19, 3:04am

Sun Sep 19, 2:04am

Sun Sep 19, 1:04am

Sun Sep 19, 12:04am

Sat Sep 18, 11:05pm

Sat Sep 18, 10:04pm

Sat Sep 18, 9:04pm

Sat Sep 18, 8:04pm

Sat Sep 18, 7:04pm

Sat Sep 18, 6:04pm

Sat Sep 18, 5:04pm

Sat Sep 18, 4:04pm

Sat Sep 18, 3:04pm

Sat Sep 18, 2:04pm

Sat Sep 18, 1:04pm

Sat Sep 18, 12:04pm

Sat Sep 18, 11:04am

Sat Sep 18, 10:04am

Sat Sep 18, 9:04am

Sat Sep 18, 8:04am

Sat Sep 18, 7:04am

Sat Sep 18, 6:04am

Sat Sep 18, 5:04am

Sat Sep 18, 4:04am

Sat Sep 18, 3:04am

Sat Sep 18, 2:04am

Sat Sep 18, 1:04am

Sat Sep 18, 12:04am

Fri Sep 17, 11:04pm

Fri Sep 17, 10:04pm

Fri Sep 17, 9:04pm

Fri Sep 17, 8:04pm

Fri Sep 17, 7:04pm

Fri Sep 17, 6:04pm

Fri Sep 17, 5:04pm

Fri Sep 17, 4:04pm

Fri Sep 17, 2:04pm

Fri Sep 17, 1:04pm

Fri Sep 17, 12:05pm

Fri Sep 17, 11:04am

Fri Sep 17, 10:04am

Fri Sep 17, 9:04am

Fri Sep 17, 8:04am

Fri Sep 17, 7:04am

Fri Sep 17, 6:04am

Fri Sep 17, 5:04am

Fri Sep 17, 4:04am

Fri Sep 17, 3:04am

Fri Sep 17, 2:04am

Fri Sep 17, 1:04am

Fri Sep 17, 12:04am

Thu Sep 16, 11:04pm

Thu Sep 16, 10:04pm

Thu Sep 16, 9:04pm

Thu Sep 16, 8:04pm

Thu Sep 16, 7:04pm

Thu Sep 16, 6:04pm

Thu Sep 16, 5:04pm

Thu Sep 16, 4:04pm

Thu Sep 16, 3:04pm

Thu Sep 16, 2:04pm

Thu Sep 16, 1:05pm

Thu Sep 16, 12:04pm

Thu Sep 16, 11:05am

Thu Sep 16, 10:05am

Thu Sep 16, 9:04am

Thu Sep 16, 8:04am

Thu Sep 16, 7:04am

Thu Sep 16, 6:04am

Thu Sep 16, 5:04am

Thu Sep 16, 4:04am

Thu Sep 16, 3:04am

Thu Sep 16, 2:04am

Thu Sep 16, 1:04am

Thu Sep 16, 12:04am

Wed Sep 15, 11:04pm

Wed Sep 15, 10:04pm

Wed Sep 15, 9:04pm

Wed Sep 15, 8:04pm

Wed Sep 15, 7:04pm

Wed Sep 15, 6:04pm

Wed Sep 15, 5:05pm

Wed Sep 15, 4:04pm

Wed Sep 15, 3:04pm

Wed Sep 15, 2:04pm

Meta data:

ID: ed29c6c9-fdbc-4291-ba65-61bbebe317d2
Link: https://api.weather.gov/products/ed29c6c9-fdbc-4291-ba65-61bbebe317d2